Theta_e
308 308 308 309 309 309 310 311 312 312 313 313 313 314 314 313 315 315 317 316 317 314 314 315 315 314 314 312 313 312 312 311 311 312 312 310 308 306 304 304 302 300 300 299 299 299 299 296 293 292 291 290 289 289 289 289 289 289 289 288 286 285 286 284 283 282 283 285 285 285 285 285 285 284 283 283 283 283 286 283 283 282 282 282 282
305 306 306 306 306 306 307 308 309 310 311 311 310 311 311 312 313 312 312 311 313 314 314 312 311 313 313 312 310 310 310 311 309 311 310 307 304 304 303 302 301 298 298 297 295 296 296 293 291 290 289 288 288 288 288 287 287 287 287 286 285 285 283 285 283 283 282 283 284 284 283 284 281 283 282 282 281 281 281 281 282 282 282 281 281
302 303 303 304 304 305 306 308 309 308 308 308 308 308 308 309 311 310 309 309 308 312 314 313 312 311 311 309 309 307 308 307 304 305 306 305 303 302 301 301 299 297 296 296 294 293 292 291 289 289 288 287 286 286 286 286 286 285 285 284 284 284 283 282 282 282 281 281 282 282 282 283 281 281 282 282 281 282 280 280 281 283 283 282 281
302 301 301 301 302 301 301 303 306 307 308 308 308 308 309 309 308 309 310 308 308 307 308 309 309 309 308 306 305 305 305 303 302 303 304 302 301 300 298 299 298 297 296 294 293 292 291 289 288 287 287 286 285 285 285 285 285 284 284 283 284 283 282 282 282 281 281 282 280 282 282 281 281 281 282 281 280 280 279 281 279 280 280 281 281
300 300 299 298 298 298 297 298 299 301 303 304 304 304 304 304 304 305 304 305 306 305 304 303 304 305 306 305 304 303 302 301 302 302 302 301 301 300 298 298 296 295 294 293 291 291 290 289 287 287 286 285 284 284 284 283 284 284 283 283 283 283 283 282 281 281 280 280 280 281 281 281 281 280 279 278 278 278 278 279 279 280 279 280 281
297 297 298 299 300 300 300 300 301 301 302 302 301 302 302 302 302 301 302 304 302 301 301 300 301 303 303 303 303 302 300 300 300 301 300 299 299 298 297 297 296 294 293 292 291 290 289 288 287 286 285 284 284 283 283 283 283 283 283 283 282 282 282 281 281 280 280 280 280 280 280 281 279 279 279 279 278 278 277 277 278 278 278 277 277
297 299 300 300 300 299 300 301 301 301 301 301 300 300 299 298 299 299 298 299 299 298 297 297 295 297 299 298 299 299 299 297 297 296 295 295 295 294 293 293 292 292 291 290 289 288 287 286 286 286 285 284 283 283 283 283 284 283 283 282 282 282 281 281 281 280 280 280 280 280 280 279 279 278 278 279 278 277 276 276 276 278 278 277 277
300 300 299 298 298 298 298 298 298 299 298 299 298 298 298 296 296 295 295 296 295 294 295 296 294 294 296 295 296 294 293 293 293 293 293 292 293 293 292 291 290 288 287 287 287 286 285 285 285 285 284 283 283 283 284 283 283 282 282 282 282 281 281 280 280 280 279 280 279 279 278 278 278 278 278 276 276 274 276 276 275 275 276 276 275
300 300 299 298 298 300 299 297 297 295 294 295 295 294 293 292 291 292 292 293 294 293 293 294 293 293 293 292 293 292 294 294 293 293 293 292 292 291 290 289 288 287 286 285 285 285 284 284 284 283 284 284 285 285 285 285 284 282 282 282 281 281 281 280 280 279 279 279 279 280 279 278 277 277 276 276 275 274 275 276 272 273 274 275 276
300 301 300 299 299 299 296 295 295 295 294 293 291 290 290 289 290 290 290 290 291 291 292 291 291 292 292 291 292 292 293 294 292 292 293 293 292 291 289 288 287 286 285 284 283 284 283 283 284 284 285 285 286 287 287 287 286 284 282 282 281 281 280 279 278 278 278 279 279 280 279 277 276 276 275 275 276 275 274 272 271 273 272 273 273
299 300 300 300 299 295 294 293 292 291 291 290 290 289 289 289 289 289 289 290 290 290 290 291 290 290 292 292 291 291 293 293 291 293 294 293 291 290 289 287 286 285 285 284 283 282 282 282 282 283 283 284 285 287 287 287 287 287 286 285 284 282 280 278 278 279 279 279 280 280 279 277 276 276 275 275 275 274 274 272 271 270 269 269 267
299 299 299 299 297 295 293 292 290 290 290 290 290 290 289 289 289 289 289 289 289 289 290 290 291 291 291 290 290 290 290 291 292 293 293 293 291 289 288 287 286 285 284 283 282 282 282 281 281 282 281 281 282 283 285 286 286 286 286 286 286 286 285 281 279 279 280 279 278 279 278 277 276 276 275 275 274 274 273 272 270 270 269 268 269
298 298 298 297 296 294 292 291 290 290 290 289 290 289 289 288 288 288 289 288 288 289 290 290 290 290 290 290 290 290 289 290 292 292 293 292 292 289 287 287 285 284 283 282 282 282 281 281 280 281 281 282 281 281 281 282 285 285 285 284 284 285 285 285 285 281 281 280 278 278 278 277 277 276 276 275 276 271 272 271 270 271 270 270 270
296 296 294 295 294 293 292 291 290 290 289 289 288 288 287 288 288 288 288 288 288 288 288 289 288 289 289 289 289 289 289 289 292 292 292 292 292 290 287 286 285 284 283 282 282 281 281 280 280 280 280 280 280 280 280 280 281 281 280 279 279 281 283 284 283 283 282 280 278 278 279 279 276 276 276 276 272 269 270 271 273 272 271 271 272
296 295 293 293 292 292 292 291 290 290 289 288 287 287 287 287 287 287 287 287 287 287 287 287 288 287 288 288 289 288 288 289 291 291 292 292 292 289 286 286 285 283 282 281 281 281 281 280 280 279 279 279 280 280 280 280 279 279 279 278 279 280 280 281 281 280 279 279 278 278 279 279 277 276 275 276 275 275 274 274 275 274 274 272 271
293 293 293 294 293 292 291 291 290 289 288 288 287 287 287 287 287 287 287 287 287 287 287 287 287 286 287 287 287 287 287 289 290 291 291 292 292 287 286 285 284 283 281 281 280 280 280 280 279 279 279 279 282 284 282 280 279 278 278 278 279 280 279 281 282 282 279 278 278 279 278 278 280 277 277 276 276 277 275 272 269 268 267 265 267
292 293 293 292 292 292 291 291 290 289 288 287 287 287 287 287 287 287 286 287 286 286 286 286 286 286 286 286 286 287 286 288 289 290 291 291 290 286 285 285 284 283 281 280 280 280 280 279 279 279 279 279 283 285 285 283 278 278 278 278 279 278 278 280 283 283 283 283 282 282 281 281 281 281 281 282 280 278 273 270 268 265 265 264 265
291 292 292 293 292 292 292 291 290 289 288 288 287 287 287 287 286 286 286 286 286 286 286 286 286 286 286 286 287 286 286 286 289 289 290 291 289 286 285 285 283 283 280 279 280 279 280 281 280 279 279 279 285 286 286 283 278 279 278 278 277 277 277 278 277 279 282 283 282 281 280 280 279 280 280 281 281 280 272 270 266 266 265 265 263
290 292 293 293 293 292 291 290 289 289 288 288 287 287 287 287 286 286 286 286 286 286 286 286 286 286 286 286 286 286 286 286 288 289 290 290 288 285 285 284 282 281 279 278 278 279 279 281 281 280 280 281 286 286 286 283 280 280 279 278 277 276 277 276 275 275 274 274 274 275 275 276 277 276 275 278 279 279 275 271 267 266 265 264 265
288 287 290 292 292 292 291 289 288 288 287 287 287 287 287 286 286 286 286 286 286 286 286 286 286 286 286 286 286 286 286 286 286 289 289 289 289 286 285 283 282 280 278 278 277 275 278 278 282 284 284 284 286 287 287 285 281 280 279 278 277 276 277 275 276 275 275 274 273 273 273 274 274 274 272 273 273 275 274 273 272 268 266 265 265
287 288 290 291 291 290 290 289 288 288 287 287 287 287 287 286 286 286 285 286 286 285 285 285 285 285 286 285 285 285 286 285 286 288 289 289 290 287 284 284 282 280 278 278 277 277 277 277 276 284 285 286 286 287 287 286 283 280 280 278 278 277 278 275 277 278 274 273 272 271 271 272 272 272 272 271 272 273 274 276 274 273 269 267 265
288 288 290 290 289 289 288 287 287 287 287 286 286 286 286 286 286 285 285 285 285 285 285 285 285 285 285 285 285 285 286 285 285 287 288 289 289 289 285 283 282 279 277 277 277 277 277 277 277 282 285 286 286 287 287 287 285 280 280 281 281 281 279 276 275 273 272 271 271 271 271 271 271 271 272 273 273 273 273 273 275 273 271 270 269
288 288 288 288 288 287 287 287 287 287 286 286 286 285 285 285 285 285 285 285 285 284 284 284 284 284 284 285 285 285 285 285 285 285 287 288 289 289 288 284 287 280 278 278 277 278 277 278 279 282 285 286 286 287 287 288 285 281 282 283 282 282 278 274 273 272 272 271 271 271 272 272 271 271 272 272 273 273 273 273 272 271 271 271 271
286 286 285 285 285 286 286 286 286 286 286 286 286 285 285 285 285 284 284 284 283 283 283 283 283 283 283 283 284 284 285 285 285 285 285 287 288 288 288 287 288 280 278 278 277 278 279 279 280 282 284 285 286 287 287 287 285 284 283 283 282 281 274 273 272 272 271 271 271 271 271 272 272 272 272 273 273 272 271 270 270 270 270 270 271
285 284 283 282 282 283 285 285 286 286 286 286 285 285 284 284 283 283 283 283 283 283 283 282 282 283 283 283 283 284 284 284 284 284 285 285 287 288 288 288 287 287 279 278 279 279 282 283 282 283 284 285 286 286 286 286 286 285 284 283 282 277 273 272 271 271 270 270 271 271 272 272 273 273 273 272 271 271 271 270 270 270 271 272 272
283 282 282 281 280 280 280 280 283 285 285 286 285 285 285 284 284 283 283 283 283 283 283 282 282 282 282 283 283 283 284 283 284 284 284 284 284 286 287 287 285 285 283 280 283 284 284 283 283 283 283 284 284 284 283 283 285 285 284 282 278 274 273 272 271 270 270 271 271 271 272 272 272 272 272 271 270 269 269 270 270 270 272 272 271
282 281 280 279 278 279 279 278 277 278 279 283 285 285 285 284 283 283 283 282 282 282 282 282 281 281 281 282 282 282 282 282 282 282 282 282 282 283 282 283 284 284 282 280 281 281 282 282 282 283 282 283 284 283 282 282 282 282 281 279 275 274 273 272 271 271 271 271 271 272 272 272 272 270 269 269 269 270 271 270 271 271 271 271 270
281 280 279 279 279 278 279 279 279 277 276 277 277 277 278 279 281 282 282 282 281 281 280 280 280 279 278 277 277 276 276 276 277 278 278 279 280 281 282 282 282 282 282 281 280 280 280 282 282 281 281 281 282 280 279 279 279 278 277 275 274 273 273 274 273 272 271 272 271 271 270 270 269 269 269 269 270 270 271 271 271 270 271 270 268
280 278 279 279 279 278 279 278 277 278 277 276 276 278 277 277 277 276 276 279 279 278 277 277 278 277 277 277 276 276 275 276 278 282 281 283 281 280 280 281 282 282 282 282 279 279 279 278 278 278 278 278 278 278 277 276 276 275 274 273 272 271 271 271 270 270 270 270 270 270 269 269 268 269 269 269 269 270 271 270 271 270 270 270 268
278 278 278 278 278 278 278 277 276 277 277 277 275 276 279 280 279 278 276 282 283 284 283 277 275 274 275 276 277 278 278 276 283 286 286 286 286 285 284 284 284 283 283 284 280 278 277 277 277 277 277 277 277 276 275 275 274 273 272 273 271 270 270 270 270 270 270 270 269 269 268 269 268 269 268 268 269 270 270 271 269 270 269 269 268
278 278 278 277 278 278 277 277 277 276 277 276 276 274 276 276 283 284 283 281 282 282 283 284 285 284 279 274 276 284 284 285 285 285 286 286 286 286 285 285 285 285 284 281 277 277 276 276 276 276 276 276 276 276 275 274 273 272 271 271 271 270 270 270 269 269 269 269 269 269 268 268 268 269 268 269 268 269 269 270 270 269 269 268 267
279 278 277 276 277 277 276 276 275 276 274 274 274 274 274 274 275 281 283 283 283 283 283 283 283 283 283 282 279 275 281 283 284 285 285 285 286 286 285 285 285 285 285 283 276 275 275 275 275 275 275 274 274 274 274 273 273 272 271 270 270 270 269 269 270 269 269 269 268 268 268 268 268 268 269 268 269 268 268 268 269 269 269 269 268
278 277 276 276 276 276 276 276 274 275 273 273 274 273 274 274 274 274 277 282 283 283 283 283 283 283 283 283 284 283 282 283 283 284 285 285 285 285 285 285 285 285 285 281 276 275 274 274 274 274 274 273 274 274 274 274 273 272 272 271 270 270 270 270 271 269 269 268 268 268 268 268 268 268 268 268 268 267 268 267 268 269 269 268 267
276 276 276 276 276 275 275 275 275 273 273 273 273 273 273 273 273 272 273 273 274 279 282 282 282 283 283 283 283 283 283 283 283 283 284 284 284 284 284 283 285 286 284 278 277 276 275 274 274 274 274 274 274 274 274 274 274 273 272 272 271 271 270 270 269 268 268 268 268 267 268 268 268 267 267 267 268 267 267 267 268 267 268 268 267
274 274 274 275 275 275 274 273 273 273 273 272 273 274 274 274 273 273 273 273 273 273 272 273 280 284 279 280 282 283 283 283 283 283 283 283 283 284 284 279 278 279 280 281 279 278 277 276 275 275 275 275 275 275 275 275 274 274 273 272 272 271 270 269 268 268 267 267 268 267 268 267 267 268 267 267 267 266 266 266 267 268 267 267 267
274 273 273 274 274 273 273 274 272 272 271 271 271 272 273 273 273 272 273 273 272 271 271 272 273 277 281 282 283 283 283 283 283 283 283 283 283 283 277 275 275 275 276 277 278 279 279 278 277 276 276 276 276 276 275 275 275 274 274 273 272 271 270 268 268 268 267 267 267 267 268 267 267 267 267 267 266 266 266 267 267 267 268 267 267
273 272 272 272 272 272 272 272 271 271 274 272 272 270 271 272 272 271 271 270 271 270 270 270 272 273 276 275 278 281 283 282 283 282 282 282 283 281 277 275 275 275 275 276 276 277 277 278 278 278 277 276 276 276 276 275 275 274 274 273 272 272 270 269 268 267 266 266 266 267 267 267 267 267 266 265 266 266 266 267 267 267 268 268 267
270 270 270 270 270 271 270 270 270 274 272 271 271 271 270 270 270 271 271 270 271 271 269 269 274 271 271 272 277 276 275 279 280 280 281 281 279 276 276 276 276 276 276 276 276 276 277 277 277 277 277 277 277 276 276 275 275 274 273 272 271 271 271 269 268 267 267 267 267 267 267 267 267 266 266 266 265 266 266 266 266 266 267 268 267
270 273 273 274 274 270 269 269 269 268 269 269 269 269 270 270 269 269 269 268 268 268 269 267 268 269 270 270 271 273 274 271 271 272 272 273 274 275 275 276 276 276 277 277 277 277 277 277 277 277 277 277 276 276 276 275 274 273 273 271 270 270 269 268 267 267 266 266 267 267 267 267 267 266 266 265 265 266 266 266 266 266 266 266 267
269 268 271 273 270 270 269 269 268 268 269 268 267 268 268 268 268 268 268 268 268 268 268 269 269 268 270 270 271 272 271 271 271 271 272 272 273 274 275 275 276 276 276 277 277 277 277 277 277 276 276 276 276 276 275 274 273 272 271 270 269 269 269 269 268 267 267 267 267 267 267 266 266 266 265 265 265 265 265 265 266 267 267 266 267
269 268 269 272 271 268 268 268 268 267 267 267 268 268 269 270 270 270 270 270 270 270 270 269 269 269 271 273 276 276 272 271 271 271 272 272 272 272 273 274 275 275 276 276 277 277 277 277 278 277 277 276 275 275 274 272 271 270 269 268 268 268 267 267 267 267 267 267 267 266 266 266 266 265 264 265 266 265 265 266 266 266 267 267 266
267 267 267 267 268 267 267 267 267 269 268 269 269 270 270 270 270 270 270 270 269 270 270 269 269 269 272 274 274 275 273 270 269 270 270 271 271 272 273 273 274 274 274 275 275 275 276 277 277 276 276 275 274 273 272 272 271 270 269 268 268 267 267 266 266 266 266 266 266 266 266 266 265 265 265 265 264 264 264 265 265 265 266 266 266
267 267 266 267 266 266 266 266 267 268 270 270 269 269 269 269 269 270 269 269 268 268 267 267 267 268 269 273 273 273 270 269 269 270 269 269 270 270 271 271 272 272 272 273 274 274 274 275 275 276 276 276 275 274 273 272 271 270 270 269 268 268 267 267 266 265 265 265 265 265 265 266 265 265 264 264 264 264 264 264 264 265 265 265 265
266 266 266 266 267 266 267 267 268 269 269 268 268 268 268 268 268 266 265 264 265 265 265 265 266 266 266 267 269 268 266 266 267 267 268 269 269 269 269 269 270 270 271 271 271 271 271 272 273 273 274 275 275 274 273 273 272 270 270 269 268 267 267 267 266 266 266 265 265 265 264 265 265 264 264 264 264 263 263 263 264 264 264 264 265
264 264 265 266 267 267 267 267 267 267 267 266 266 266 267 266 266 265 265 264 264 264 264 264 265 265 265 265 265 266 265 265 266 267 267 267 267 268 268 268 268 269 269 269 269 268 269 270 271 271 272 273 274 272 271 271 270 270 270 269 269 268 267 267 267 267 267 266 266 265 265 264 264 264 263 263 263 263 263 263 263 263 263 263 264
263 264 265 266 266 267 266 267 267 267 266 266 265 265 266 267 267 266 266 264 264 263 263 263 263 264 265 265 264 265 265 264 265 265 266 266 266 267 266 267 267 267 268 268 269 268 268 268 268 269 269 270 271 271 270 269 269 269 269 269 269 269 269 268 268 267 267 267 266 266 265 265 264 264 263 263 263 263 262 263 263 263 263 263 263
265 266 266 266 266 266 266 266 266 266 266 265 266 266 266 265 265 265 265 265 264 264 262 262 262 262 262 262 263 263 264 264 264 265 264 265 264 265 265 265 266 266 266 267 266 267 267 267 267 267 267 267 268 268 268 266 266 266 266 266 266 266 266 266 267 267 266 266 266 266 265 264 264 263 263 263 262 262 262 262 262 262 263 263 263
265 265 265 265 265 265 265 265 265 265 265 265 264 264 264 264 263 263 262 262 262 261 261 261 260 261 262 262 262 263 263 263 264 264 264 264 264 264 264 264 265 265 265 265 265 265 265 265 265 266 266 266 265 266 265 264 262 262 262 263 263 263 263 264 264 265 266 266 266 266 265 264 264 263 263 262 262 262 261 261 262 262 262 262 262
264 263 264 264 263 263 263 263 263 262 262 262 261 261 262 261 261 260 261 260 260 260 259 260 260 260 260 261 261 262 262 263 262 262 263 263 264 265 265 265 264 264 264 264 264 264 264 264 264 264 264 265 265 265 265 264 263 262 261 261 262 264 264 264 264 265 265 266 266 266 265 264 264 263 263 262 262 262 261 261 261 261 261 261 261
262 262 262 262 262 261 261 260 260 259 259 259 258 258 259 259 258 259 258 258 258 258 258 259 259 259 259 260 260 261 261 261 262 262 263 263 264 264 264 264 263 263 264 264 264 264 263 264 263 263 263 263 263 263 263 263 262 263 261 262 263 264 264 264 265 264 264 265 265 265 265 264 264 263 263 262 261 261 261 260 260 260 260 260 260
261 260 260 259 259 258 258 257 257 257 257 257 256 256 257 256 256 256 257 256 257 257 258 257 257 258 258 258 260 260 260 260 261 261 261 261 261 261 262 262 262 262 263 263 263 263 264 264 263 263 262 262 262 262 262 262 261 261 262 263 264 264 264 264 264 264 264 264 264 264 264 263 263 262 262 261 261 261 260 260 260 259 259 259 259
Wind_Speed
2 4 2 1 0 1 2 2 3 2 2 3 4 4 3 2 2 1 0 2 2 4 4 4 4 5 6 6 7 7 7 7 7 8 9 9 8 10 9 8 8 6 6 5 4 6 7 8 7 7 7 7 6 5 5 5 4 5 5 5 5 3 4 4 6 4 2 1 4 3 3 4 0 3 3 2 1 3 3 3 3 3 3 2 3
2 1 2 2 3 3 3 3 3 3 3 3 4 3 3 2 2 2 3 4 4 5 5 4 4 6 7 6 6 7 7 8 8 9 9 9 8 7 9 10 9 8 7 7 6 5 6 8 7 7 7 8 7 7 6 6 6 6 5 6 6 4 2 4 4 5 5 0 2 2 3 3 2 2 4 2 3 2 3 4 3 2 1 2 3
3 1 1 1 1 1 1 3 3 4 4 4 4 4 4 4 1 3 4 5 4 5 7 8 7 6 6 7 7 6 7 7 5 6 6 9 10 9 9 11 11 11 10 10 9 7 7 8 8 8 6 7 7 7 5 6 5 7 6 4 5 4 3 3 3 5 5 4 2 2 2 1 2 2 1 3 1 1 3 4 3 1 1 1 2
1 1 1 1 1 1 1 2 2 4 4 4 4 3 3 4 3 4 4 4 4 4 3 4 5 6 7 6 6 7 7 6 6 6 7 7 7 9 9 9 9 10 10 9 8 8 9 8 8 9 8 9 8 7 6 5 6 6 6 4 5 5 4 3 2 3 3 5 2 3 2 2 1 1 2 3 1 2 3 4 2 3 2 1 1
1 1 1 1 1 1 2 2 3 4 4 3 3 3 2 2 2 3 4 4 4 4 4 3 4 4 6 6 7 7 7 6 7 8 7 7 9 10 10 9 8 9 8 8 9 9 9 10 10 10 9 9 7 7 7 7 6 6 7 5 5 4 3 3 3 2 3 5 3 2 2 1 2 1 3 2 1 1 2 2 4 6 2 0 1
4 2 1 1 1 1 2 2 2 2 2 3 3 3 2 1 2 2 1 3 3 3 3 3 4 5 5 6 6 7 6 6 7 7 7 6 7 7 8 8 8 9 9 9 10 9 10 9 9 9 10 11 10 8 7 8 7 7 6 6 5 4 5 3 3 3 4 4 4 3 1 2 0 0 2 3 2 1 2 3 4 4 2 2 1
4 2 1 1 2 2 2 2 3 2 2 3 4 4 3 1 1 2 1 1 2 3 2 3 3 4 4 4 4 5 5 6 5 4 4 4 5 6 6 6 6 6 7 8 8 7 7 8 9 10 11 10 10 11 10 8 8 7 7 7 5 6 6 5 5 5 5 4 4 4 4 3 3 2 2 3 3 2 1 4 4 3 3 3 4
3 4 4 3 3 2 2 3 3 1 0 1 0 0 0 1 1 0 0 1 2 3 4 4 2 1 2 3 3 3 4 4 4 5 6 4 4 6 8 8 8 6 7 7 8 8 8 8 9 9 9 8 9 8 10 10 7 7 6 6 7 7 6 6 5 6 6 5 6 5 3 2 1 0 1 3 3 2 1 1 5 6 6 4 2
3 4 4 5 3 3 3 2 2 1 0 0 0 0 1 1 1 0 0 0 0 0 1 1 2 2 2 3 3 4 5 6 6 7 6 6 5 6 7 9 9 8 7 7 7 8 7 8 8 7 7 8 9 8 8 8 9 9 6 7 7 7 6 6 6 6 6 6 5 3 3 2 2 2 1 1 2 3 1 0 2 3 4 5 5
5 5 5 4 4 4 4 3 3 2 1 1 1 1 1 1 1 1 1 0 0 1 2 2 3 4 4 3 3 4 5 5 7 10 9 9 8 7 5 6 8 8 8 8 6 6 8 7 7 10 10 11 12 12 11 10 7 7 8 8 8 7 7 7 7 7 6 6 6 4 4 4 5 3 3 2 2 1 2 1 3 4 2 4 4
6 6 6 5 5 5 4 4 3 2 2 3 3 2 2 2 2 1 1 0 0 0 1 2 3 3 3 4 4 4 5 4 8 10 10 10 8 7 8 8 7 7 8 9 9 8 6 6 6 8 9 9 9 12 11 10 9 11 10 9 7 9 8 8 7 7 7 7 4 4 5 5 4 3 3 3 1 1 1 1 3 2 2 3 1
7 6 5 5 5 5 4 4 3 3 3 3 3 3 3 3 2 2 1 0 1 1 0 0 1 1 2 2 3 4 4 5 8 9 10 11 10 8 8 8 8 8 8 8 7 7 7 7 5 5 5 7 7 8 9 10 10 10 10 9 7 7 7 7 7 7 7 7 6 6 4 5 4 3 2 2 1 0 1 1 2 1 2 2 2
6 5 5 4 5 5 4 4 4 3 3 3 3 3 3 3 2 1 1 1 1 1 0 1 1 1 2 3 4 3 3 5 8 10 11 11 11 8 6 7 8 8 8 8 8 7 7 8 7 5 5 10 8 6 7 7 9 10 10 9 7 6 7 6 4 4 5 6 6 6 6 4 4 3 3 3 2 1 1 1 2 2 3 4 4
5 4 5 5 5 5 5 4 4 3 4 4 4 3 2 2 2 2 2 1 1 1 1 2 1 2 3 3 3 2 3 3 7 9 10 10 10 7 4 6 6 7 7 8 8 9 9 9 9 8 6 7 7 8 7 7 7 7 6 5 5 5 7 8 6 5 3 5 6 7 4 3 4 3 2 3 3 2 2 3 2 3 4 5 4
5 5 5 5 5 5 5 4 4 4 4 3 3 3 3 2 2 2 2 2 2 2 2 2 3 3 3 3 3 3 3 4 7 9 9 9 9 6 4 4 5 5 5 6 7 8 8 8 8 9 9 8 8 9 10 9 8 7 6 6 6 6 6 5 5 4 4 3 3 3 3 3 4 4 3 2 3 3 2 3 3 4 4 4 5
5 5 5 5 5 5 5 5 4 5 4 4 3 3 3 3 4 3 3 2 2 2 2 3 3 3 3 3 3 4 3 6 7 8 9 10 10 6 5 6 6 6 6 6 6 6 6 7 8 9 9 9 11 15 11 8 8 8 8 6 5 5 5 5 7 6 5 4 3 3 4 2 3 3 2 3 1 1 2 2 2 3 3 3 5
6 6 6 6 6 6 6 6 5 5 4 4 4 4 4 4 3 3 3 3 3 3 4 3 3 4 4 3 4 4 3 6 9 9 10 11 9 4 4 4 5 7 7 5 6 6 6 7 7 8 9 8 12 17 16 12 8 9 8 7 5 4 4 5 9 9 9 10 7 4 3 3 4 5 7 8 6 4 2 1 5 1 1 3 4
6 6 6 6 7 7 6 6 5 5 5 5 4 3 2 2 2 2 3 3 3 2 2 2 2 2 3 4 4 3 3 4 8 9 10 11 9 6 5 5 4 5 4 4 5 6 7 11 10 9 9 9 14 18 18 13 9 8 8 8 7 6 5 3 3 4 8 8 7 6 4 5 6 6 6 7 8 6 6 6 3 2 1 1 4
6 7 6 6 6 6 6 5 4 5 4 4 4 3 3 3 2 2 1 1 0 0 0 0 0 0 1 1 1 2 2 3 7 9 11 12 10 5 5 5 6 5 5 5 4 5 5 8 11 8 8 9 17 17 18 13 9 9 9 8 8 9 9 6 6 5 5 4 2 2 2 4 4 2 2 6 8 7 4 4 4 2 4 3 2
5 5 4 5 5 5 5 4 4 4 3 2 2 2 2 2 2 2 1 1 1 1 1 1 1 1 0 1 2 2 3 2 4 10 11 12 13 6 4 6 7 6 5 6 5 4 5 5 6 11 13 15 17 18 17 16 10 8 7 8 9 11 6 7 6 6 5 5 3 2 3 2 3 3 2 2 2 2 3 3 5 5 5 5 3
6 5 5 6 5 5 4 4 4 3 3 3 3 2 2 2 2 2 1 1 1 0 0 0 1 2 1 1 2 2 2 2 3 9 11 12 13 11 4 6 4 5 6 6 6 6 6 5 4 9 15 16 18 18 18 17 12 8 9 9 8 2 7 6 7 8 5 4 3 2 2 2 3 3 3 3 3 3 3 4 4 4 5 5 4
7 6 6 6 5 5 5 4 4 4 4 4 4 3 2 3 3 2 2 2 1 0 0 1 1 2 2 2 2 2 1 1 1 6 9 10 12 13 6 4 3 5 5 6 5 5 6 6 6 8 14 15 17 17 18 17 16 9 9 8 7 8 6 5 5 5 4 3 3 3 3 4 4 4 4 4 4 5 4 4 3 3 3 5 6
7 7 6 6 6 5 5 5 4 4 4 4 4 3 3 3 3 3 2 2 1 0 0 1 1 2 2 2 2 2 1 1 3 4 7 9 9 11 9 3 3 4 5 6 6 6 4 4 4 8 12 14 16 18 18 18 14 7 10 11 10 9 8 5 5 4 4 4 4 4 5 5 5 5 5 5 4 4 4 3 2 1 1 1 2
7 7 7 6 6 6 5 5 4 4 4 4 4 4 3 3 3 3 2 2 2 1 0 0 1 1 2 2 2 1 1 1 2 4 4 6 6 7 8 4 3 2 3 4 3 3 3 4 4 10 13 14 16 17 17 15 9 11 12 12 11 10 6 5 4 5 4 4 5 5 6 5 5 5 5 5 5 4 3 1 2 3 3 4 5
7 7 7 7 6 5 5 5 4 4 4 4 4 4 3 3 3 2 2 2 1 1 0 1 1 1 2 3 3 2 2 2 2 2 3 3 5 7 9 8 5 4 2 3 1 2 3 4 5 10 12 13 14 15 13 14 14 13 14 12 10 4 5 5 5 4 6 7 7 6 5 6 6 5 4 5 5 3 2 2 2 4 5 5 6
8 8 7 7 7 6 6 5 4 5 4 4 4 3 4 3 3 2 2 1 1 1 1 0 1 1 3 3 3 3 3 3 3 2 3 5 6 8 8 9 9 8 4 2 3 1 2 5 7 10 12 11 8 7 5 6 12 14 14 13 6 6 6 6 5 7 8 7 7 8 6 5 4 5 4 4 4 5 4 3 3 4 4 4 3
8 8 8 7 6 6 7 5 5 4 4 4 5 5 5 4 4 3 3 2 1 1 1 2 2 3 4 5 4 4 3 4 4 4 5 5 5 4 4 5 6 6 5 1 1 0 1 4 5 6 5 9 9 7 6 6 7 8 7 5 5 6 6 7 7 8 7 7 6 5 4 3 2 3 4 4 4 4 5 5 4 4 4 4 3
8 8 8 7 6 6 6 8 7 6 4 5 5 5 5 5 5 5 5 5 5 5 5 5 5 5 5 5 4 4 5 4 5 5 5 6 6 6 6 6 6 6 6 5 4 4 4 4 5 5 5 5 7 6 6 6 6 5 6 6 7 6 8 9 7 6 6 4 3 2 2 3 5 4 3 4 5 4 4 4 4 3 3 3 1
8 7 7 7 7 5 6 5 6 6 5 4 3 5 6 6 6 4 4 6 6 6 5 5 5 4 5 5 4 5 3 4 6 5 6 7 7 6 6 7 6 6 7 8 6 5 6 6 6 7 7 9 9 9 8 7 7 6 6 6 5 6 5 6 8 9 7 5 6 6 5 4 5 4 4 4 5 4 3 3 4 4 3 3 5
7 7 7 7 7 7 6 6 5 6 6 6 4 1 3 7 5 6 3 3 5 5 5 3 3 2 1 3 4 6 6 6 5 7 9 9 10 10 9 8 9 6 8 14 8 5 7 8 8 9 9 9 10 10 10 9 8 7 7 7 6 6 7 7 8 7 5 6 5 5 5 5 5 5 5 5 3 4 4 5 4 3 4 5 5
7 7 7 6 6 6 6 5 5 4 4 5 4 4 1 1 5 6 6 4 2 0 1 1 3 4 4 3 3 4 5 5 4 4 6 8 8 9 10 10 10 11 11 7 5 7 7 8 8 8 8 8 9 9 8 8 8 7 7 6 6 7 8 9 7 5 6 6 6 5 5 5 6 5 5 5 4 4 4 4 4 5 5 5 5
7 6 6 6 6 6 5 5 4 5 3 3 2 2 2 1 1 4 6 7 6 5 5 4 4 4 5 5 4 3 5 6 7 5 6 8 9 10 11 11 12 12 14 13 7 6 6 7 7 7 6 8 9 6 6 7 7 7 7 7 9 9 9 10 7 6 6 7 7 7 6 6 5 6 6 6 5 4 4 5 5 5 5 5 6
8 7 6 6 6 6 6 5 4 4 4 3 1 1 1 1 1 1 2 2 4 4 5 6 7 7 7 8 8 7 7 7 8 8 7 8 9 9 10 12 12 14 14 10 7 8 7 8 8 7 7 9 7 7 7 7 7 8 8 9 10 9 9 9 7 8 9 9 9 9 7 7 6 5 6 5 6 6 5 6 5 5 5 5 5
6 6 6 7 7 6 6 5 5 3 3 2 1 1 1 1 1 2 1 1 1 2 3 5 6 7 7 8 8 8 9 9 10 10 10 8 9 10 10 8 12 14 12 8 8 9 7 8 8 8 8 8 8 8 9 9 9 9 9 10 10 9 9 8 9 11 10 10 10 11 8 7 7 7 7 6 6 5 5 6 6 6 7 7 6
7 8 10 7 6 6 6 5 4 3 3 2 1 1 0 0 1 1 0 0 0 0 1 2 4 5 4 4 5 7 8 9 9 10 10 10 10 10 10 6 6 6 8 8 8 9 8 9 9 9 8 9 9 9 10 10 9 10 10 11 10 9 8 9 12 12 13 13 10 11 9 9 9 8 8 7 7 7 7 7 7 7 7 6 5
7 7 6 8 7 7 7 6 6 6 4 3 3 2 1 1 1 1 1 1 1 2 3 2 2 4 5 4 6 7 8 9 9 9 10 10 10 9 5 5 5 6 7 8 8 9 8 9 8 9 8 8 8 8 8 9 9 9 9 9 9 9 8 9 9 11 13 15 14 10 9 9 9 8 7 7 9 8 7 7 7 7 7 7 6
7 7 6 6 6 6 6 6 5 4 3 2 2 3 2 2 2 1 2 2 2 3 3 4 5 5 4 3 4 5 8 8 9 9 10 9 10 7 5 6 7 6 7 7 7 8 8 8 7 8 8 9 9 9 8 9 8 8 8 8 8 9 9 9 10 9 11 12 11 10 10 10 9 9 9 9 8 8 7 7 7 7 7 7 6
7 6 6 5 5 6 6 5 3 3 1 1 1 1 1 1 1 1 2 2 2 2 4 4 4 5 6 6 5 3 4 5 6 6 6 6 5 4 5 5 6 7 8 7 7 7 8 8 7 8 8 7 9 9 8 9 8 8 8 8 8 9 7 8 8 10 10 10 10 10 10 9 9 9 9 9 9 8 8 8 7 7 7 7 7
6 8 9 8 7 6 6 5 4 3 3 3 2 2 1 1 1 2 2 3 3 3 4 3 3 3 5 4 6 6 5 4 3 5 4 4 5 5 5 6 6 7 7 7 7 7 8 9 7 7 8 7 8 8 8 8 8 8 8 7 7 7 7 7 8 10 10 11 10 9 9 9 9 9 9 9 9 9 8 8 8 8 8 8 8
7 6 7 8 6 6 5 4 4 4 4 3 3 3 1 2 1 1 2 3 3 3 3 3 3 4 5 4 5 5 5 6 5 6 5 5 5 4 5 6 6 7 7 7 7 7 8 8 8 8 8 8 8 8 8 8 8 8 6 7 7 8 9 8 9 9 10 10 10 9 10 10 9 8 8 9 9 8 8 9 9 9 8 7 6
7 6 6 5 5 5 5 5 5 3 3 2 1 1 1 1 2 2 2 2 3 3 3 3 4 4 4 5 7 7 5 6 6 6 6 5 5 5 5 5 6 6 6 7 7 7 7 8 8 8 7 8 7 7 7 7 7 6 7 7 7 8 8 8 8 9 9 9 10 9 9 8 8 9 10 10 8 8 8 7 7 7 7 6 7
7 7 6 6 6 5 5 5 4 2 2 2 2 2 2 2 3 3 3 3 3 4 4 4 3 4 5 9 8 9 6 5 5 6 6 5 5 6 6 6 6 6 6 6 6 6 7 7 8 7 7 7 7 7 6 7 6 7 7 7 8 8 8 8 8 9 9 9 9 9 8 9 9 10 9 7 8 8 8 8 7 7 7 7 6
6 6 6 6 6 5 4 3 2 3 3 3 2 2 2 2 2 2 2 3 3 3 4 4 4 3 4 5 7 8 5 6 5 5 5 5 5 5 6 6 6 6 6 7 7 7 7 8 8 8 8 8 7 7 7 8 7 7 7 7 8 8 9 8 7 8 8 8 9 9 10 10 10 9 8 8 8 8 8 8 8 7 7 7 7
6 6 6 5 5 4 4 4 3 3 3 1 1 1 1 1 1 1 1 2 2 2 3 4 4 5 4 5 5 5 5 5 5 6 5 6 6 6 6 6 6 6 6 6 6 6 7 8 9 9 9 9 7 6 6 6 6 7 8 8 8 9 9 8 8 8 8 9 10 10 10 9 9 8 8 8 8 8 8 8 8 8 7 7 7
6 6 6 6 5 4 4 4 3 3 1 1 2 2 2 1 1 1 1 2 4 3 3 3 4 4 6 5 5 5 6 6 6 6 6 6 6 6 6 6 6 6 7 7 6 6 7 8 8 9 9 8 7 6 6 5 5 6 6 8 8 8 8 8 9 9 9 10 9 9 9 9 9 9 9 8 8 8 8 8 8 7 7 7 7
6 5 5 5 4 3 3 3 2 3 2 2 1 2 2 2 2 2 3 3 4 3 4 4 4 4 5 5 5 6 6 6 6 6 7 6 6 6 6 6 6 7 7 7 7 7 7 7 7 8 9 9 9 7 6 5 5 6 6 7 8 9 8 7 6 7 8 9 9 9 9 10 10 9 10 9 8 8 8 8 7 8 8 8 8
5 5 4 3 4 3 2 2 2 2 2 1 1 1 2 2 2 3 3 4 3 5 3 4 4 5 5 5 6 5 6 5 6 6 6 6 6 6 6 7 7 7 7 7 6 7 7 8 7 7 8 8 8 9 8 6 6 6 6 6 6 7 6 5 6 7 7 9 9 9 9 9 10 9 10 10 8 9 9 9 9 9 8 7 7
4 3 3 3 3 3 2 2 2 2 2 2 2 2 3 3 3 3 3 3 3 4 3 3 5 5 5 5 5 5 5 5 5 6 6 6 6 6 6 6 7 7 7 8 7 7 7 7 7 7 8 8 9 9 8 8 7 7 6 6 7 7 8 9 6 7 6 7 9 10 10 10 9 9 9 10 10 9 9 8 8 7 7 7 7
4 4 4 4 3 3 2 3 3 2 2 2 2 2 3 2 2 2 3 3 3 3 4 5 5 5 4 5 5 5 5 6 5 5 5 6 6 7 7 7 7 8 7 8 8 7 7 7 7 8 8 8 9 9 9 8 7 7 6 6 9 13 13 13 9 7 9 8 8 8 8 8 9 9 9 9 9 8 8 7 7 7 6 6 6
4 4 4 3 3 3 4 3 2 2 3 2 1 1 1 2 2 3 3 3 3 3 4 4 5 5 5 5 6 5 5 5 6 6 6 6 7 7 8 8 8 8 8 8 8 8 8 7 8 8 8 8 8 9 8 8 8 7 6 7 10 13 13 14 14 12 9 7 8 8 8 8 8 8 8 8 8 8 8 7 7 7 6 7 7
4 4 4 2 1 1 1 1 1 2 1 1 1 1 1 2 3 2 3 3 4 4 4 5 5 4 4 5 6 5 5 5 5 6 6 6 7 7 8 8 8 8 9 9 9 9 9 9 8 8 8 8 8 8 8 8 8 8 8 11 13 14 13 12 9 10 13 10 7 7 8 9 9 9 8 8 8 8 8 8 8 7 7 7 6
Wind_Direction
197 196 171 186 74 285 285 300 286 281 260 243 242 255 264 269 281 289 43 216 173 177 193 191 192 204 211 213 208 204 199 195 191 181 181 179 172 162 156 157 155 157 155 159 156 163 165 155 153 155 149 155 166 170 178 174 144 130 124 126 137 143 144 152 169 205 306 104 129 152 146 109 136 170 185 219 291 295 300 286 281 281 274 268 286
217 172 163 192 230 239 251 279 294 304 291 290 278 281 285 291 266 275 233 227 181 187 194 203 199 201 212 215 215 208 204 195 191 186 185 175 162 157 159 159 162 161 161 165 166 169 163 153 154 155 158 160 167 178 179 169 154 138 145 145 155 171 156 145 177 164 210 289 82 90 125 133 152 204 165 198 277 296 305 295 299 254 229 276 284
196 178 165 200 260 304 316 304 310 308 304 291 280 269 272 270 257 234 238 234 221 211 201 196 199 207 217 214 205 203 202 200 197 196 191 177 168 166 170 168 165 165 171 175 173 165 159 162 164 158 154 160 175 179 175 165 148 147 154 144 153 170 166 133 138 184 192 237 192 172 171 169 154 227 189 168 196 235 288 295 277 304 326 257 269
133 152 162 180 215 248 259 248 242 255 265 268 266 271 268 258 248 237 237 230 228 237 222 218 212 210 209 204 201 201 200 194 191 197 183 176 170 169 170 173 170 171 173 168 168 170 170 163 170 165 162 166 169 167 172 158 152 148 149 153 146 162 163 136 133 147 178 185 282 170 221 162 278 201 157 118 103 323 286 284 327 332 296 289 287
176 176 155 175 244 215 238 233 225 238 258 285 281 281 280 283 297 278 276 259 241 229 238 221 213 207 208 201 199 202 199 192 193 196 195 191 183 174 173 170 165 169 174 175 175 174 173 178 173 167 163 158 161 169 171 161 153 147 156 160 151 148 142 144 165 135 155 188 230 257 211 212 204 184 134 119 352 350 330 17 331 303 276 274 290
181 156 131 155 239 299 302 317 301 257 250 279 291 298 308 303 285 277 250 255 255 242 228 230 209 213 210 209 203 201 197 194 196 204 200 186 175 174 171 167 170 173 174 175 177 179 177 174 169 166 164 169 176 172 166 160 151 154 158 159 150 141 146 156 161 178 178 207 198 261 316 188 297 245 163 114 92 4 347 329 314 301 320 326 272
145 135 162 176 213 221 243 265 291 297 280 265 272 286 291 296 287 273 299 279 253 242 240 219 233 215 221 206 203 198 194 187 187 190 188 178 166 157 154 158 167 170 173 171 170 168 167 165 171 174 177 178 171 171 164 160 162 165 164 158 154 147 161 177 176 186 194 210 237 214 231 272 171 211 263 102 78 139 123 314 303 275 299 298 304
155 167 179 197 199 214 206 216 231 238 9 28 13 345 340 310 298 353 71 254 224 218 220 218 237 212 218 196 186 163 166 170 171 165 167 177 176 168 157 160 164 164 164 165 164 166 165 169 177 180 179 177 173 166 163 161 156 157 159 152 153 155 170 178 185 190 200 209 211 230 217 195 323 85 118 58 44 1 86 204 278 302 309 305 260
183 181 183 190 193 191 194 135 102 106 102 82 84 53 40 46 46 44 50 53 98 191 169 167 169 190 176 175 169 167 174 185 179 173 168 166 169 172 164 164 167 163 161 161 162 160 162 170 177 171 166 163 161 160 160 157 157 157 164 153 157 163 176 185 186 187 205 202 226 212 190 205 226 156 0 140 177 206 230 252 268 277 290 309 310
187 195 195 183 178 166 138 131 131 124 121 115 100 93 83 68 69 63 58 73 106 141 154 162 172 185 185 186 179 179 194 193 190 185 179 173 171 167 162 169 169 164 162 162 168 171 164 160 158 155 153 151 151 150 148 147 147 155 159 160 164 169 180 180 187 194 192 201 206 200 206 214 220 187 181 209 165 83 21 312 289 287 310 290 274
192 193 195 183 171 139 142 140 134 128 129 126 113 106 101 93 83 80 76 70 86 104 148 178 200 195 193 190 193 200 205 203 190 187 182 172 163 165 171 173 169 169 172 168 168 168 157 146 143 140 136 133 137 139 133 127 130 145 151 159 168 172 172 180 197 187 192 199 198 189 192 208 227 194 185 188 143 133 227 256 274 305 345 7 320
189 194 191 175 152 147 148 142 139 137 119 112 120 117 109 105 100 101 94 68 55 62 88 267 240 211 197 198 202 206 208 189 184 187 185 183 180 175 173 169 171 175 175 172 167 167 156 146 142 141 142 143 139 133 129 125 122 121 125 130 128 151 178 176 178 187 190 186 195 201 182 205 210 182 189 132 168 43 241 240 247 272 299 278 256
182 187 187 172 155 146 147 147 146 137 130 127 119 104 105 105 106 110 114 119 110 117 171 151 194 173 183 204 220 212 214 192 188 191 192 191 189 182 177 170 171 179 176 172 168 167 161 151 149 148 145 141 136 139 141 139 131 130 128 131 144 156 169 186 197 186 170 180 187 201 188 185 187 211 162 164 131 169 223 256 250 266 263 270 258
174 185 173 173 152 150 149 146 148 142 131 121 116 115 110 119 117 113 110 105 131 153 159 181 171 189 194 205 214 211 224 207 196 199 197 195 190 186 178 171 175 179 179 173 172 173 171 165 159 158 156 151 150 151 154 150 150 144 145 155 168 182 192 197 190 162 167 181 177 194 205 153 191 167 147 135 138 185 199 242 247 267 270 259 266
175 173 167 163 154 151 147 147 144 136 127 122 120 130 144 135 130 137 142 154 164 184 187 195 200 191 193 181 185 200 207 193 204 200 197 192 188 177 169 167 172 178 178 176 179 180 176 170 165 160 160 164 169 165 160 161 155 158 161 176 184 192 194 198 190 181 182 179 179 176 187 123 126 124 125 112 144 189 189 222 238 247 268 290 302
170 165 168 167 160 155 148 146 142 139 139 140 145 159 162 166 166 163 153 155 157 160 181 177 190 185 185 172 179 214 199 186 197 199 194 191 184 172 178 181 180 177 178 180 177 176 172 164 158 162 168 171 176 171 164 156 157 163 175 184 188 188 201 201 195 192 188 185 183 163 130 164 170 161 159 155 174 207 271 349 7 333 325 321 292
171 167 168 160 156 155 155 153 151 150 156 157 173 179 173 177 174 159 163 179 184 190 197 190 179 180 185 185 187 212 208 191 194 195 193 190 182 183 182 182 181 183 188 179 171 167 170 168 167 167 170 177 179 174 170 163 164 172 178 184 188 183 194 190 193 188 190 193 178 171 196 229 253 252 247 246 225 194 163 278 276 162 37 327 303
169 165 168 160 162 163 164 161 161 162 163 176 179 176 168 164 177 173 177 190 215 220 193 199 190 186 190 204 198 203 220 189 195 198 197 196 191 187 187 183 188 186 181 170 162 168 174 177 174 172 174 178 181 177 176 169 173 178 175 177 187 203 208 184 169 197 200 203 196 200 227 250 250 245 244 240 238 220 146 218 226 121 280 213 259
170 170 171 163 159 157 161 161 162 161 169 182 170 168 176 176 143 144 165 149 208 120 98 275 319 286 241 256 255 239 258 206 198 204 202 203 197 189 187 184 185 193 169 171 173 169 181 181 180 172 171 176 183 182 180 174 179 178 179 176 198 210 209 179 179 183 192 187 165 123 239 246 237 193 222 240 232 226 179 194 205 182 216 235 255
173 155 145 143 140 142 149 153 152 157 166 153 153 158 127 119 131 128 145 121 134 121 144 176 223 272 184 213 244 244 260 245 207 211 211 210 206 196 191 183 198 186 178 174 172 195 189 189 183 176 176 180 186 187 187 181 181 176 174 192 196 221 183 182 190 180 189 184 191 168 190 223 235 197 178 204 241 188 200 204 193 182 196 207 212
148 145 134 130 132 135 129 138 140 138 140 142 130 117 132 135 112 118 118 78 85 104 294 322 323 308 316 300 277 278 255 237 215 212 214 214 211 203 202 209 193 173 182 186 191 190 196 197 200 191 185 185 189 192 193 188 181 180 192 202 202 142 147 176 184 170 175 166 164 200 207 239 231 203 185 189 203 211 213 215 205 197 181 199 210
138 134 132 127 128 125 119 110 110 117 112 114 119 112 97 110 117 116 110 120 145 327 17 349 340 324 334 343 325 309 327 196 226 222 219 217 217 213 214 225 184 173 182 206 201 211 205 197 200 201 194 190 194 195 196 192 186 187 203 200 183 192 167 152 139 135 156 169 182 207 208 217 219 208 198 196 203 201 198 210 207 193 204 182 186
131 132 129 122 119 114 114 115 111 110 113 118 124 117 110 109 102 111 120 117 122 87 36 15 3 337 336 339 340 341 343 332 215 232 231 229 228 228 228 248 211 176 195 212 214 221 205 209 205 203 204 199 198 199 200 198 189 192 194 196 193 186 137 143 143 155 175 188 194 211 212 202 206 202 197 198 194 191 195 185 181 156 238 237 237
119 118 116 117 116 112 108 105 104 107 113 111 109 115 110 105 103 109 102 106 106 106 84 70 34 334 311 315 320 306 285 224 254 236 244 242 244 240 245 261 282 233 210 232 241 236 217 212 202 202 209 210 208 206 205 201 199 186 188 198 196 186 132 153 167 181 191 194 206 214 213 207 195 198 198 185 181 153 135 166 238 246 233 239 238
113 112 109 107 104 103 101 104 107 107 113 116 114 110 107 111 103 92 102 101 105 132 141 118 169 250 283 272 272 241 208 196 215 228 226 236 241 241 243 249 279 284 271 294 266 249 230 201 197 205 212 218 216 214 214 212 207 201 204 201 202 138 155 169 178 178 204 212 213 217 214 209 202 187 162 140 131 139 151 234 228 234 232 233 232
111 111 107 105 109 109 102 95 98 112 111 107 108 116 121 117 104 101 109 125 140 161 200 142 183 236 263 269 261 247 206 187 190 155 164 192 211 225 226 232 240 251 263 289 325 330 187 179 189 204 213 221 221 223 226 220 216 211 209 209 182 164 170 172 188 199 218 214 214 216 215 192 190 173 153 148 162 197 175 194 210 232 217 222 237
115 112 110 110 111 115 119 117 109 99 105 116 123 133 134 136 132 134 147 151 165 190 202 202 217 225 240 244 245 235 218 202 192 185 181 190 198 196 211 223 234 235 239 210 73 39 148 167 195 206 214 224 227 232 230 220 217 212 207 190 160 181 185 192 198 211 220 218 217 220 204 182 134 142 181 185 204 202 183 197 204 212 205 238 228
120 120 120 120 122 125 120 128 128 127 125 124 124 123 135 150 154 168 174 184 187 205 202 207 216 224 238 241 249 257 248 231 222 214 202 189 196 192 196 197 200 199 201 179 146 144 148 156 184 192 195 210 217 214 215 213 215 204 192 182 185 189 200 208 219 231 236 229 226 166 152 159 199 197 199 211 224 212 198 202 200 211 209 169 211
114 115 117 115 123 123 123 129 131 133 135 121 127 146 155 163 170 198 210 185 185 192 200 209 211 217 213 224 238 268 269 253 251 216 210 198 195 198 203 207 199 198 194 168 139 146 155 174 190 191 193 202 206 208 206 206 213 202 197 189 185 193 194 196 213 221 215 203 208 196 199 190 210 204 203 219 223 209 209 198 229 191 233 218 223
118 118 117 117 122 120 120 120 122 131 141 147 138 127 162 156 163 170 221 203 191 187 159 185 186 167 192 242 205 222 243 241 228 209 214 207 204 202 206 202 200 186 185 178 165 182 197 204 208 203 206 205 212 209 209 206 205 205 210 202 193 197 208 217 226 224 213 213 205 193 203 204 218 207 206 212 231 218 211 206 213 204 193 218 226
117 117 116 119 128 127 126 128 131 125 129 134 136 145 170 280 202 194 194 195 161 69 336 253 236 231 204 240 279 289 285 289 265 220 210 200 199 202 201 197 200 195 188 163 183 205 214 221 222 217 220 220 224 222 213 211 216 212 214 208 214 210 216 221 219 194 217 213 211 205 199 208 216 209 203 211 195 215 211 225 194 212 215 205 217
120 121 116 116 109 107 109 114 114 107 111 107 121 117 134 110 337 273 225 223 223 216 229 236 243 251 255 248 251 277 277 275 278 246 225 218 210 209 211 212 211 201 203 181 200 225 223 232 233 228 222 227 233 228 224 220 222 218 217 215 224 217 215 224 203 196 207 210 206 206 199 207 213 213 214 205 195 197 204 217 223 218 225 218 218
115 115 112 106 99 99 104 103 106 103 101 100 100 116 127 131 134 12 337 276 236 232 241 244 250 259 266 268 261 256 261 265 265 259 227 214 215 214 214 219 215 214 211 206 212 225 223 230 237 234 223 232 230 225 230 224 222 221 217 222 227 223 220 221 199 206 208 206 173 199 201 201 206 209 222 206 197 201 202 207 218 226 223 221 229
97 106 110 112 108 103 102 106 109 109 121 122 147 138 178 157 164 175 202 339 357 322 285 257 258 265 269 264 265 268 272 274 274 269 261 236 230 227 224 225 229 224 211 210 215 231 224 233 234 232 230 229 227 221 226 224 219 221 220 224 227 224 218 195 190 204 189 190 196 189 200 200 196 198 207 205 205 199 208 212 205 215 222 218 216
88 79 76 82 93 94 89 81 78 78 78 84 89 106 178 233 190 207 200 165 239 256 290 313 296 252 246 274 283 283 281 279 277 276 275 266 255 244 244 237 236 243 241 238 228 233 233 234 238 238 236 238 237 228 233 230 226 225 224 225 227 223 210 201 207 194 184 197 188 194 202 198 201 200 197 195 196 201 206 207 213 215 217 224 212
90 87 74 68 70 72 71 65 62 63 64 46 54 45 37 28 354 339 342 346 346 331 334 307 309 323 310 273 273 281 285 286 284 282 280 277 271 265 247 239 238 236 234 243 245 246 241 240 240 245 239 244 243 241 238 239 234 235 233 231 231 225 216 212 211 211 198 190 193 197 195 203 200 197 194 201 205 204 202 204 207 217 217 215 216
87 81 72 69 74 78 74 70 64 58 42 40 37 22 14 6 357 350 346 346 343 341 337 324 340 338 347 336 303 289 290 287 289 290 288 286 277 267 233 232 233 242 238 244 246 253 253 252 242 246 243 243 246 243 241 242 240 238 237 230 230 228 224 217 214 212 200 197 205 208 205 205 198 194 190 198 205 202 205 206 208 212 215 208 194
87 91 90 83 88 90 92 101 104 90 88 66 39 87 14 21 339 334 330 315 334 335 331 328 342 339 339 317 334 326 286 311 314 314 309 299 290 268 256 244 240 242 252 251 250 251 257 258 253 251 250 241 244 244 242 243 240 237 236 233 227 233 215 212 210 208 207 210 211 211 210 206 199 194 194 198 200 197 200 202 202 209 215 207 198
84 81 82 82 81 80 83 77 69 73 59 68 53 77 36 31 353 358 354 7 353 339 321 329 330 337 319 324 345 331 352 335 324 298 289 273 261 254 252 252 251 254 255 257 256 257 259 262 257 255 252 246 245 244 240 241 238 236 232 229 226 224 213 213 206 207 207 213 216 212 209 205 198 194 195 195 200 198 196 197 200 203 207 210 208
90 83 76 80 80 85 88 96 90 76 77 78 39 60 37 45 42 23 4 2 331 317 319 323 329 323 317 344 336 331 333 306 303 300 303 297 285 275 259 256 256 256 259 261 259 257 260 261 258 255 254 249 244 245 241 238 237 234 222 217 219 223 220 214 215 211 213 214 215 213 208 205 197 190 193 201 199 195 193 197 200 201 204 207 210
111 105 102 97 106 105 99 93 85 90 81 74 93 77 73 43 19 10 353 332 312 317 314 324 317 312 318 322 323 325 313 298 292 292 288 290 292 290 286 280 277 275 272 268 267 266 263 267 265 260 256 255 247 243 240 235 232 225 221 220 218 227 223 219 216 219 220 216 217 215 213 202 194 188 198 203 189 191 198 195 197 202 200 200 197
91 91 83 76 74 79 86 80 86 77 115 99 61 68 50 23 15 346 330 311 312 315 321 319 311 307 314 316 317 317 310 292 289 288 286 286 285 285 284 285 287 290 294 292 291 290 288 284 280 276 271 265 255 246 241 237 228 223 225 222 223 225 226 222 217 217 219 218 218 215 211 205 200 204 202 186 187 189 190 196 194 195 196 198 194
90 92 90 88 87 91 94 80 85 71 62 53 43 16 6 5 335 310 314 315 325 323 318 312 309 314 312 314 320 317 306 293 290 287 288 285 283 281 283 282 283 282 284 288 291 289 291 290 290 287 283 276 265 246 235 238 228 228 227 226 226 228 229 228 220 218 215 217 218 214 210 207 202 202 196 192 190 187 190 191 192 192 194 195 195
89 93 92 96 92 81 84 95 68 70 74 45 302 267 248 251 268 294 306 315 308 308 309 307 309 315 312 312 314 311 299 296 296 295 295 295 293 291 290 289 289 294 292 295 294 297 293 293 291 290 287 283 275 255 245 238 223 223 224 225 227 230 229 227 222 217 210 215 216 213 208 207 204 198 195 193 187 188 189 186 190 191 189 194 191
87 89 90 87 83 91 75 81 86 86 49 65 37 350 347 9 347 328 329 316 312 311 310 303 307 308 308 308 307 307 303 302 304 306 302 299 297 296 296 296 298 299 301 300 303 304 302 297 296 293 292 290 288 273 257 242 228 226 223 224 232 235 234 226 224 219 215 216 217 211 205 200 200 196 194 192 189 189 189 189 187 188 189 190 189
84 86 87 88 86 81 81 76 70 66 59 45 17 31 343 4 337 349 330 322 308 302 295 299 295 296 295 301 303 309 307 310 306 303 303 306 305 304 305 305 305 303 302 302 303 302 299 297 296 296 295 297 298 293 277 262 243 236 230 227 232 239 238 233 224 222 218 215 213 211 206 202 200 198 192 186 185 186 186 186 185 191 190 189 192
71 75 75 76 79 75 65 72 61 31 38 335 343 335 339 333 334 325 311 300 299 299 302 297 308 308 312 313 317 313 315 317 315 316 313 312 312 312 312 310 310 308 307 306 306 304 304 302 299 297 298 300 301 300 294 282 266 255 248 245 247 247 249 235 227 220 219 214 210 210 207 201 197 192 189 184 181 182 181 187 186 187 187 185 184
71 73 74 74 69 68 56 52 55 16 14 9 7 358 337 328 323 319 318 319 315 313 313 320 322 316 321 319 320 320 319 317 317 316 314 315 310 312 312 316 316 317 315 313 311 308 305 304 306 305 305 304 303 298 293 279 269 255 249 243 242 239 238 235 232 225 217 213 211 211 205 201 195 190 184 182 182 179 180 187 184 184 181 179 178
62 61 61 53 58 40 50 51 28 22 14 2 358 342 331 345 328 323 319 319 320 325 322 323 318 322 323 316 317 316 310 311 307 309 308 307 308 311 313 312 310 310 309 307 308 308 306 304 305 304 303 300 300 297 294 288 277 266 253 244 243 242 240 235 230 225 212 212 214 210 203 199 192 187 182 181 182 180 181 178 178 176 175 173 171
52 43 52 37 49 25 31 28 28 21 8 359 344 327 325 334 331 321 319 322 321 323 326 326 325 316 316 313 316 309 313 310 313 309 313 314 320 320 321 320 320 316 314 311 311 309 306 303 302 300 298 297 296 295 293 289 283 273 267 254 245 248 242 239 233 221 207 210 208 204 197 190 187 184 183 177 174 173 173 175 174 171 173 173 182
46 48 41 47 46 15 37 27 25 1 2 333 349 337 321 318 307 315 319 326 320 316 313 312 304 310 311 308 310 313 312 311 313 316 319 319 318 316 314 314 315 315 313 313 311 312 308 309 304 304 301 300 296 295 290 288 283 276 262 256 259 258 250 235 230 217 207 203 201 200 192 188 181 178 172 172 171 176 176 170 169 171 173 176 171